This demonstration page uses our WeatherBlox Daily Observations layout. Learn more.

Left ArrowRight Arrow

36.19886, -115.1175

Hourly Observations for May 21, 2021

Temp ( °F °C ) Dew Point ( °F °C ) Humidity (%) Winds ( mph kmh ) Pressure ( in mb ) Visibility ( mi km ) Precip ( " mm )
12:53 am 00:53 Clear with Blowing Dust 64 17.8 10 -12.2 12 12 WSW 23 37 29.57 1001 10 16 N/A
1:53 am 01:53 Clear with Blowing Dust 62 16.7 13 -10.6 14 14 SSW 17 28 29.58 1002 10 16 N/A
2:53 am 02:53 Clear with Blowing Dust 61 16.1 15 -9.4 17 17 SW 24 39 29.57 1002 10 16 N/A
3:53 am 03:53 Clear with Blowing Dust 60 15.6 16 -8.9 18 18 SW 17 28 29.57 1002 10 16 N/A
4:53 am 04:53 Clear with Blowing Dust 59 15 16 -8.9 18 18 SW 22 35 29.59 1002 10 16 N/A
5:53 am 05:53 Sunny with Blowing Dust 58 14.4 15 -9.4 18 18 SW 18 30 29.61 1003 10 16 N/A
6:53 am 06:53 Sunny with Blowing Dust 59 15 16 -8.9 18 18 SSW 15 24 29.64 1004 10 16 N/A
7:53 am 07:53 Sunny with Blowing Dust 61 16.1 17 -8.3 18 18 SSW 18 30 29.65 1004 10 16 N/A
8:53 am 08:53 Sunny with Blowing Dust 64 17.8 23 -5 21 21 N 18 30 29.66 1004 10 16 N/A
9:53 am 09:53 Sunny with Blowing Dust 64 17.8 24 -4.4 22 22 NNW 18 30 29.68 1005 10 16 N/A
10:53 am 10:53 Cloudy with Blowing Dust 62 16.7 27 -2.8 26 26 N 8 13 29.73 1007 10 16 N/A
11:53 am 11:53 Cloudy with Blowing Dust 59 15 30 -1.1 33 33 NNW 23 37 29.76 1008 10 16 N/A
12:53 pm 12:53 Mostly Cloudy with Blowing Dust 58 14.4 34 1.1 41 41 NNW 18 30 29.83 1010 10 16 0.00 0.00
1:53 pm 13:53 Sunny with Blowing Dust 62 16.7 28 -2.2 28 28 WNW 12 19 29.82 1010 10 16 N/A
2:53 pm 14:53 Sunny with Blowing Dust 67 19.4 19 -7.2 16 16 WSW 21 33 29.81 1010 10 16 N/A
3:53 pm 15:53 Partly Cloudy with Blowing Dust 68 20 15 -9.4 13 13 W 16 26 29.81 1009 10 16 N/A
4:53 pm 16:53 Sunny with Blowing Dust 67 19.4 21 -6.1 17 17 WSW 22 35 29.81 1010 10 16 N/A
5:53 pm 17:53 Sunny with Blowing Dust 66 18.9 21 -6.1 18 18 WSW 13 20 29.82 1010 10 16 N/A
6:53 pm 18:53 Sunny with Blowing Dust 66 18.9 19 -7.2 16 16 SW 10 17 29.83 1010 10 16 N/A
7:53 pm 19:53 Clear with Blowing Dust 64 17.8 19 -7.2 18 18 SW 9 15 29.84 1011 10 16 N/A
8:53 pm 20:53 Clear with Blowing Dust 64 17.8 20 -6.7 18 18 WSW 7 11 29.86 1011 10 16 N/A
9:53 pm 21:53 Clear with Blowing Dust 63 17.2 20 -6.7 19 19 SW 8 13 29.88 1012 10 16 N/A
10:53 pm 22:53 Clear with Blowing Dust 62 16.7 21 -6.1 21 21 SSW 3 6 29.89 1012 10 16 N/A
11:53 pm 23:53 Clear with Blowing Dust 60 15.6 21 -6.1 22 22 N N/A 29.89 1012 10 16 N/A

Powered by AerisWeather